Flag for U.S.A. Weather past 2 weeks in Canton, Ohio, U.S.A.

Now
20 °F

Scattered clouds.


Feels Like: 12 °F
Forecast: -4 / 24 °F
Wind: 6 mph from Southeast

Location: Akron-Canton Regional Airport

Current Time: Feb 28, 2015 at 2:51:29 PM

Latest Report: Feb 28, 2015 at 1:51 PM


Visibility: 10 mi

Pressure: 30.75 "Hg

Humidity: 40%

Dew point: -1 °F

Location of CantonLocation

Historic Weather in Canton — Graph

°F

Canton temperature yesterday

Maximum temperature yesterday: 15 °F (at 12:51 PM)
Minimum temperature yesterday: -4 °F (at 5:51 AM)
Average temperature yesterday: 7 °F

Past Weeks' High & Low Weather Summary

 TemperatureHumidityPressure
High29 °F (Feb 21, 4:51 PM)92% (Feb 22, 8:51 AM)30.83 "Hg (Feb 22, 8:51 AM)
Low-9 °F (Feb 20, 2:51 AM)31% (Feb 17, 12:51 PM)29.53 "Hg (Feb 14, 12:51 PM)
Average10 °F64%30.19 "Hg
* Reported Feb 13 1:51 PM — Feb 28 1:51 PM, Canton, Weather by CustomWeather, © 2015

Note: Actual official high and low records may vary slightly from our data, if they occured in-between our weather recording intervals... More about our weather records

Advertising

Canton weather history for previous 24 hours

 ConditionsComfort  
Time TempWeatherWind HumidityBarometerVisibility
1:51 PM
Sat, Feb 28
20 °FScattered clouds.6 mph40%30.75 "Hg10 mi
12:51 PM19 °FScattered clouds.7 mph39%30.78 "Hg10 mi
11:51 AM17 °FScattered clouds.No wind42%30.80 "Hg10 mi
10:51 AM15 °FScattered clouds.7 mph40%30.82 "Hg10 mi
9:51 AM12 °FScattered clouds.5 mph53%30.83 "Hg9 mi
8:51 AM7 °FScattered clouds.6 mph79%30.81 "Hg6 mi
7:51 AM0 °FScattered clouds.No wind79%30.80 "Hg4 mi
6:51 AM-2 °FHaze.No wind83%30.78 "Hg6 mi
5:51 AM-1 °FHaze.No wind75%30.78 "Hg6 mi
4:51 AM1 °FClear.3 mph65%30.77 "Hg8 mi
3:51 AM2 °FPassing clouds.No wind69%30.75 "Hg10 mi
2:51 AM0 °FPassing clouds.No wind75%30.73 "Hg10 mi
1:51 AM4 °FPassing clouds.No wind66%30.73 "Hg10 mi
12:51 AM5 °FPassing clouds.3 mph63%30.72 "Hg10 mi
11:51 PM
Fri, Feb 27
7 °FPassing clouds.No wind63%30.72 "Hg10 mi
10:51 PM7 °FClear.No wind57%30.73 "Hg9 mi
9:51 PM3 °FClear.5 mph66%30.71 "Hg10 mi
8:51 PM7 °FClear.3 mph60%30.69 "Hg10 mi
7:51 PM9 °FClear.No wind52%30.67 "Hg10 mi
6:51 PM13 °FClear.3 mph46%30.65 "Hg10 mi
5:51 PM13 °FPassing clouds.5 mph46%30.64 "Hg10 mi
4:51 PM14 °FScattered clouds.13 mph44%30.63 "Hg10 mi
3:51 PM15 °FScattered clouds.7 mph44%30.62 "Hg10 mi
2:51 PM14 °FScattered clouds.10 mph49%30.61 "Hg10 mi
Weather by CustomWeather, © 2015

See weather overviewHow to use our weather pages